Temp_Advection
nan nan nan nan nan nan nan nan nan nan nan nan nan nan nan nan nan nan nan nan nan nan nan nan nan nan nan nan nan nan nan nan nan nan nan nan nan nan nan nan nan nan nan nan
nan 0 0 0 -0 -1 -1 -0 -0 -0 -1 -2 -2 -1 -0 -0 -0 -0 -0 -0 -0 -0 -0 -0 -0 0 0 -0 0 0 -0 -0 0 0 0 0 0 0 -0 -0 0 0 0 nan
nan 0 -0 -0 -1 -0 -0 -0 -0 -0 -1 -1 -2 -1 -0 -1 0 -0 -1 -0 -0 -0 -0 -0 0 0 0 0 0 0 0 0 0 0 0 0 0 -0 -0 0 0 0 0 nan
nan -0 -1 -1 -0 -0 -0 0 -0 0 -0 -0 -0 -1 -0 -0 -0 -0 -0 -0 -0 -0 -0 0 0 0 0 0 -0 0 0 0 0 0 0 0 0 0 -0 0 0 0 0 nan
nan -0 -0 -0 -0 0 0 -0 0 0 0 0 -1 -1 -0 -0 0 0 -0 -0 -0 -0 0 0 0 0 0 0 0 0 0 0 0 0 0 0 0 0 0 0 0 0 0 nan
nan -0 -0 0 -0 -0 0 -0 -0 -0 0 -0 -1 -0 0 -0 0 -0 -0 -0 -0 0 0 0 -0 -0 0 0 0 0 0 0 0 0 0 0 0 0 0 0 0 0 0 nan
nan -0 0 -0 -0 -0 -0 -0 -0 -0 -0 -0 -0 0 0 0 0 -0 -0 -0 0 -0 -0 -0 -0 0 0 0 0 0 0 0 0 0 0 0 0 0 0 0 0 0 0 nan
nan -0 0 0 0 -0 -0 -1 -0 0 -0 0 0 -0 0 -1 0 -0 -0 -0 -0 -0 -0 -0 -0 -0 0 0 0 0 0 0 0 0 0 0 0 0 -0 0 0 0 0 nan
nan 0 0 -0 0 -0 -0 -0 -0 -0 -0 -0 -0 0 -0 -1 -0 -1 -1 -0 -0 -0 -0 -0 -0 -0 -0 -0 -0 0 0 0 0 0 0 0 0 0 0 0 -0 -0 1 nan
nan 0 0 -0 -1 -1 -0 -0 -1 -0 -0 0 0 -0 0 -1 -0 -0 0 0 0 0 -0 -0 -0 -0 -0 -0 0 0 -0 -0 -0 -0 0 0 -1 -1 -1 -1 -1 -0 -0 nan
nan -0 -0 -0 -1 -0 -0 -0 -0 -0 -0 -0 0 -0 -0 -0 0 0 0 0 0 -0 -0 -0 -0 -0 -0 -0 -0 -0 -0 -0 -0 -0 -0 -0 0 -0 -0 -0 -0 -0 0 nan
nan -0 0 0 -1 -0 -0 -0 -0 0 0 -0 -0 -0 -0 0 0 0 0 0 -0 -0 -0 -0 -0 -0 -0 -0 -0 -0 -0 0 -0 -1 -0 -0 0 0 0 0 0 0 0 nan
nan 0 0 0 0 -0 -0 0 -0 -0 0 -0 -0 -1 -0 0 -0 -0 0 -0 -0 -0 -0 -0 -0 -0 -0 -0 -0 -0 -0 -0 -0 -1 -0 0 0 0 0 0 -0 0 0 nan
nan -0 -0 -0 -0 -0 -0 -0 -0 -0 -0 0 -0 1 0 0 -0 -0 -0 -0 -0 -0 -0 -0 -0 -0 -0 -0 -0 -0 0 0 -1 -0 -0 -0 0 0 0 0 -0 -0 -0 nan
nan -0 0 -0 -0 -0 -0 -0 0 -0 -0 -0 0 0 0 -0 -0 0 -0 -0 -0 -0 -0 -0 -0 -0 -0 -0 -0 -0 0 -0 0 -0 -0 -0 -0 -0 -0 -0 -0 -0 -0 nan
nan -0 -0 -0 -0 -1 -0 -0 -0 -0 -0 0 -0 0 0 -0 -0 -0 -0 -0 -0 -0 -0 0 0 -0 -0 -0 -0 -0 -0 -0 0 0 -0 -0 -0 -0 -0 -0 -0 -0 -0 nan
nan -0 -0 0 0 -0 -1 -0 -0 -0 -0 -1 0 -0 -0 -0 -0 -0 -0 -0 0 0 0 0 0 -0 -0 -0 -0 -0 -0 0 -0 0 -0 -0 -0 -0 0 -0 -0 -0 -0 nan
nan -0 -0 -0 0 -0 0 -0 -0 -0 -0 0 -0 -1 -0 -0 -0 -0 0 0 0 0 0 -0 -0 -0 -0 -0 -0 -0 -0 -1 -0 -0 -0 -1 -1 -0 -0 -0 -0 -0 -0 nan
nan -0 0 0 -0 0 0 -0 -0 -0 0 0 0 -1 -1 -0 -1 -1 0 0 0 -0 -0 -0 -0 -0 -0 -1 -0 -0 -1 -1 -0 -0 -0 -1 -0 -0 -0 -0 -0 -0 0 nan
nan -0 -0 0 0 -0 0 -0 0 -0 0 0 0 0 -0 -1 -0 -0 0 -0 -0 -0 -0 -0 -0 -0 -0 -1 -0 -0 -1 -0 -0 -0 -0 -0 -0 -0 -0 -0 -0 -0 -0 nan
nan -0 0 -0 -0 0 0 -0 -0 0 -0 -0 -0 0 0 0 1 1 -0 -0 -0 -0 -0 -0 -1 -0 -0 -0 -0 -1 -0 0 0 0 0 -0 -0 -0 -0 -0 -0 -0 -0 nan
nan -0 -0 -0 0 -0 -0 0 0 -0 -0 -0 -0 0 0 0 0 -0 -0 -0 -0 -0 -0 -0 -1 -0 -0 -1 -0 -0 -0 0 0 0 0 -0 -0 0 0 -0 -0 -0 -0 nan
nan -0 0 0 0 0 0 0 0 0 -0 -0 -0 -0 0 0 -0 -0 -0 -0 -0 -0 -0 -0 -0 -0 -0 -0 -0 0 0 1 0 0 -0 -1 -0 -0 -0 0 -0 -0 -0 nan
nan -0 0 0 0 -0 0 0 0 -0 -0 0 0 -0 0 0 -0 -0 -0 -0 -0 -0 -0 -0 -0 -0 -0 -0 -0 0 0 0 0 -0 -0 -1 -1 -1 -0 -0 0 -0 -0 nan
nan -0 -0 0 0 0 0 0 0 -0 0 0 0 0 0 -0 -0 -0 -0 -0 -0 -0 -0 -0 -0 -0 -0 -0 -0 -0 0 0 0 -0 -0 -0 -0 -0 -1 -0 -0 -0 -0 nan
nan nan nan nan nan nan nan nan nan nan nan nan nan nan nan nan nan nan nan nan nan nan nan nan nan nan nan nan nan nan nan nan nan nan nan nan nan nan nan nan nan nan nan nan
Wind_Speed
18 7 5 7 5 3 4 7 8 6 6 11 18 15 12 24 30 23 28 32 33 29 22 23 17 21 19 18 14 9 4 6 11 18 22 23 20 21 24 20 19 20 19 16
7 7 6 6 8 9 9 8 6 1 11 19 19 18 16 19 20 25 19 22 19 16 12 11 8 13 8 4 4 5 13 18 20 19 23 20 23 21 24 25 27 29 29 27
8 5 10 7 11 11 8 6 7 8 9 16 15 13 13 11 14 20 20 18 14 13 11 6 2 5 6 10 17 14 12 13 14 16 18 22 26 29 32 32 35 30 28 28
7 11 10 11 13 8 4 6 7 9 7 3 3 4 9 8 6 9 14 15 10 10 7 3 5 7 11 11 11 12 11 15 17 19 19 18 21 24 25 24 25 29 30 31
2 8 8 7 8 11 5 3 9 11 7 3 8 7 4 3 4 6 13 15 12 8 6 6 7 8 6 7 5 9 20 21 20 22 23 26 27 28 29 30 32 34 32 32
7 11 9 4 9 5 7 7 7 5 1 4 12 5 4 2 6 10 12 11 6 6 5 5 3 6 8 13 18 22 23 24 25 25 25 26 27 28 29 31 32 32 31 28
6 8 5 10 6 8 7 6 4 6 5 4 2 9 3 6 7 9 8 8 5 7 8 9 11 12 12 17 20 20 23 26 24 26 26 27 29 32 32 31 29 25 25 28
3 3 4 6 4 4 5 6 4 3 2 1 8 3 4 12 8 4 7 16 19 17 15 14 16 14 17 17 18 22 24 24 25 24 25 25 24 26 26 32 34 34 33 33
4 2 3 2 2 7 5 4 4 5 4 5 2 2 2 10 3 11 18 19 16 17 15 15 14 15 18 20 22 22 22 22 21 22 23 26 26 25 32 30 31 34 37 41
1 2 3 6 11 12 6 3 5 4 3 3 5 4 1 7 6 7 9 8 7 11 10 12 15 19 19 21 21 23 25 27 26 30 30 27 36 37 27 26 26 26 26 25
3 4 2 7 5 5 5 4 5 5 3 4 3 1 5 4 6 6 11 13 9 9 10 14 18 20 21 24 27 27 27 26 29 23 32 37 35 26 28 21 18 16 16 16
2 1 4 10 15 15 11 7 3 3 2 3 4 3 4 4 9 9 6 10 10 11 14 17 21 22 24 25 25 26 26 27 23 33 29 31 29 25 19 18 16 17 17 17
4 1 4 6 3 6 6 4 6 5 2 3 4 3 3 8 3 2 6 12 13 16 19 21 23 24 26 26 26 31 28 21 31 30 29 30 22 19 19 19 18 18 17 18
2 5 6 3 6 2 3 2 4 3 4 1 3 5 5 2 5 15 18 17 18 19 20 22 24 26 27 27 30 31 21 28 36 31 25 23 22 22 21 19 18 17 17 19
3 5 15 11 12 12 12 12 5 4 5 6 4 5 3 4 8 18 17 18 18 20 22 23 26 28 28 30 30 24 28 39 37 25 22 22 23 22 20 18 19 17 17 17
5 5 15 9 11 14 13 16 15 9 14 9 7 5 5 15 16 13 15 17 19 21 22 26 27 28 27 30 32 25 32 42 27 19 21 23 22 20 21 21 18 17 18 17
4 7 6 4 7 6 8 7 10 4 11 7 6 5 20 7 14 13 13 15 18 20 21 27 27 24 30 31 28 29 36 41 22 19 23 22 21 19 20 18 17 17 17 16
3 3 3 6 5 4 2 4 3 3 9 11 15 15 18 8 16 15 15 17 20 21 22 27 22 26 30 32 28 29 33 36 22 22 22 23 20 19 20 18 17 18 16 17
10 3 2 3 4 5 1 1 2 4 6 14 9 19 19 22 19 20 16 19 21 20 22 25 24 25 30 33 30 30 36 30 24 22 22 26 22 21 18 19 16 18 16 16
12 7 2 1 4 3 1 4 3 3 3 11 13 15 15 20 5 6 16 20 21 19 24 24 23 27 31 34 28 31 37 29 25 21 22 26 22 20 20 17 16 16 17 16
4 3 5 5 4 4 5 3 2 2 3 12 14 16 11 9 14 13 16 19 20 22 25 22 24 27 29 34 31 33 35 28 22 18 21 26 23 19 19 20 15 14 15 15
4 3 4 3 3 4 9 4 1 2 8 12 12 13 12 14 14 14 16 18 19 22 23 25 25 25 28 32 33 34 35 23 19 18 20 24 27 22 18 19 18 16 13 14
5 4 1 4 3 1 4 5 1 7 14 14 14 13 12 13 16 13 15 18 20 21 22 24 23 24 28 29 33 39 36 22 17 19 22 22 23 27 19 21 21 21 16 14
4 9 1 1 5 3 2 5 7 9 8 10 10 11 10 12 12 12 14 18 19 21 22 24 24 24 28 26 31 37 32 26 17 16 17 18 21 24 29 22 23 22 21 18
3 6 5 2 13 5 6 5 5 6 8 8 9 9 7 10 11 12 17 16 17 19 20 23 24 23 26 24 27 33 33 32 22 16 16 18 20 21 24 28 27 24 22 21
8 2 2 1 3 5 10 18 15 16 10 11 5 9 8 9 12 14 15 14 17 20 21 24 22 24 25 23 24 29 34 31 31 22 17 17 18 19 20 23 25 27 26 27
Wind_Direction
240 64 50 7 351 343 327 356 330 354 32 86 88 77 69 57 47 60 71 79 80 85 73 84 81 109 114 115 121 126 165 259 290 302 289 284 282 290 278 272 268 259 257 259
38 47 345 342 1 20 25 2 346 1 37 93 81 52 40 50 59 58 62 83 87 85 81 55 69 10 41 357 295 254 290 291 300 291 295 283 284 271 272 275 273 277 281 280
90 20 360 1 50 27 3 5 354 330 335 111 102 48 25 6 69 72 76 73 67 77 83 92 28 312 315 299 314 306 319 327 308 296 295 287 279 278 284 285 287 283 276 279
74 35 22 33 17 8 339 352 349 322 333 287 92 101 33 17 13 88 84 91 83 105 106 64 4 12 356 352 336 322 311 301 301 300 299 296 291 288 287 285 277 278 278 276
56 65 37 36 345 319 335 357 270 272 268 281 28 90 338 326 154 89 89 80 76 80 61 24 4 355 348 338 333 299 302 302 298 289 293 297 296 296 295 292 289 288 286 282
99 110 59 1 322 4 318 323 308 309 151 66 354 110 1 312 39 101 93 83 94 56 37 356 28 356 335 317 315 312 308 306 302 300 297 296 295 293 292 291 290 289 288 284
94 44 109 20 352 347 15 13 3 28 26 58 106 55 147 6 67 74 129 167 49 54 15 9 356 340 323 324 320 312 313 313 311 306 301 299 297 297 296 296 291 283 279 273
41 343 33 358 354 318 40 51 118 87 96 78 49 76 23 318 46 99 98 58 45 36 17 4 349 339 337 329 322 324 322 319 320 314 308 303 298 298 292 292 288 286 284 279
51 80 32 359 320 36 335 21 276 109 100 85 60 49 303 325 286 59 51 38 19 2 350 347 338 342 338 335 334 329 325 322 319 311 304 301 299 294 296 294 293 287 279 277
190 99 119 48 34 35 71 341 35 16 88 94 131 85 207 310 39 48 46 27 357 352 344 356 347 344 340 334 330 326 327 325 321 316 315 315 319 319 317 312 306 299 297 293
10 117 300 50 55 21 9 15 23 105 61 140 124 27 222 307 47 39 23 356 346 1 3 355 348 343 337 332 333 335 330 326 324 321 323 327 322 321 322 324 325 327 321 312
62 144 81 95 107 91 65 51 102 108 72 49 113 288 288 304 69 31 354 331 1 18 5 357 350 344 342 344 341 339 336 331 331 332 333 324 328 333 340 348 339 330 323 313
345 311 107 119 113 36 48 324 86 106 58 20 98 252 277 70 57 303 334 26 32 16 5 354 351 350 350 347 342 343 339 331 336 338 329 335 347 350 346 339 335 330 328 324
56 39 76 111 84 89 19 324 101 77 72 142 159 97 45 27 37 36 36 30 18 7 359 354 353 352 350 347 347 350 338 338 342 337 350 0 354 349 346 346 343 340 334 326
131 94 99 100 96 78 48 35 66 102 131 104 116 116 127 42 66 40 23 13 5 0 356 356 353 349 352 350 354 348 342 346 348 355 4 359 357 355 355 354 351 351 344 341
99 120 106 91 106 88 64 31 31 25 19 83 67 28 20 80 61 43 23 10 3 358 355 351 354 353 355 358 356 346 350 349 355 9 2 359 360 5 3 0 5 359 359 357
23 153 132 121 123 69 38 0 28 20 20 359 38 3 16 44 65 51 25 8 358 351 358 355 356 358 355 357 358 350 353 351 6 9 5 7 4 10 7 8 9 11 15 16
73 19 72 147 160 65 249 263 263 1 28 11 4 351 5 42 79 46 23 11 2 357 358 1 3 358 357 357 358 354 353 1 13 17 16 12 9 12 13 11 22 23 26 33
103 126 167 129 68 113 143 41 349 24 27 357 337 332 355 24 23 19 11 10 1 6 9 7 3 0 1 2 360 358 357 9 17 19 19 18 22 21 23 25 28 36 32 43
49 39 47 128 98 102 94 125 161 329 60 359 336 322 353 356 21 306 8 7 7 11 5 9 7 5 4 8 5 360 3 14 22 25 21 26 28 34 27 27 36 47 45 52
24 9 42 57 90 68 9 123 195 8 271 325 327 340 12 339 341 3 5 8 8 9 13 14 12 11 7 10 9 4 14 18 26 25 22 30 34 40 36 35 39 55 50 54
52 0 29 19 84 97 352 87 4 245 283 306 337 351 11 345 353 8 11 13 14 11 13 10 15 15 8 13 14 7 19 19 26 30 26 35 37 43 38 43 45 51 58 58
49 42 50 21 79 114 51 92 5 316 306 305 317 344 352 352 345 16 19 17 14 12 12 10 20 17 12 15 15 14 18 21 31 36 41 33 40 42 49 49 49 47 60 64
10 15 69 116 3 309 352 21 346 327 303 323 338 336 346 352 15 20 14 6 19 14 17 11 23 21 13 20 16 18 18 25 29 36 37 37 41 48 46 56 59 53 57 61
344 341 343 48 17 137 56 29 356 311 349 5 2 348 7 11 31 25 14 25 18 11 18 19 21 20 15 24 19 18 18 26 30 34 38 42 45 49 57 48 60 63 61 64
356 355 31 62 300 290 299 341 332 309 319 350 17 19 42 43 41 20 28 27 12 20 19 17 21 19 19 26 26 18 19 26 32 35 33 42 50 48 60 65 66 68 69 76
Height
1490 1502 1510 1503 1498 1496 1498 1504 1508 1501 1495 1504 1516 1525 1527 1525 1525 1527 1526 1527 1528 1530 1537 1532 1540 1535 1535 1534 1536 1538 1539 1539 1538 1537 1536 1533 1532 1530 1530 1529 1528 1527 1526 1524
1496 1510 1501 1498 1496 1499 1503 1508 1512 1502 1502 1514 1523 1534 1534 1531 1534 1535 1538 1535 1534 1535 1535 1537 1536 1538 1535 1538 1538 1537 1537 1537 1534 1532 1531 1529 1528 1525 1524 1523 1522 1521 1519 1516
1506 1509 1502 1500 1505 1508 1511 1514 1514 1514 1505 1515 1519 1543 1546 1542 1538 1538 1541 1539 1539 1538 1538 1539 1540 1540 1538 1537 1535 1534 1534 1532 1531 1529 1527 1525 1523 1520 1518 1516 1515 1513 1512 1510
1506 1508 1507 1508 1509 1512 1518 1510 1512 1512 1516 1526 1509 1549 1557 1554 1547 1543 1542 1541 1543 1542 1540 1539 1539 1539 1538 1537 1536 1535 1533 1530 1528 1526 1523 1520 1517 1513 1511 1508 1507 1505 1504 1503
1516 1515 1515 1516 1517 1510 1514 1508 1509 1508 1514 1515 1528 1544 1567 1560 1552 1546 1544 1543 1544 1544 1542 1540 1539 1538 1537 1536 1534 1532 1529 1526 1524 1521 1518 1514 1510 1507 1504 1501 1498 1496 1494 1493
1511 1512 1515 1517 1514 1509 1508 1507 1504 1503 1510 1539 1545 1545 1568 1555 1549 1545 1544 1545 1548 1544 1542 1540 1539 1537 1535 1534 1531 1528 1525 1522 1519 1515 1512 1508 1504 1500 1496 1493 1490 1488 1485 1484
1514 1519 1517 1517 1518 1511 1512 1516 1541 1538 1541 1551 1557 1553 1564 1552 1547 1546 1546 1546 1546 1543 1542 1540 1538 1535 1533 1530 1527 1524 1520 1516 1513 1509 1506 1502 1497 1493 1489 1485 1481 1478 1476 1475
1529 1531 1522 1520 1520 1523 1518 1522 1546 1548 1547 1555 1545 1563 1564 1555 1549 1547 1548 1548 1546 1545 1542 1539 1537 1534 1531 1527 1524 1520 1515 1511 1508 1503 1499 1494 1490 1485 1479 1476 1473 1470 1468 1466
1545 1532 1521 1520 1519 1521 1522 1533 1522 1534 1540 1558 1560 1567 1562 1555 1552 1551 1549 1548 1547 1544 1542 1538 1536 1532 1529 1525 1521 1516 1511 1506 1502 1497 1492 1486 1482 1477 1472 1467 1462 1458 1456 1453
1529 1538 1523 1522 1522 1526 1529 1530 1541 1547 1574 1580 1563 1570 1574 1562 1554 1551 1550 1547 1545 1543 1540 1537 1534 1530 1526 1522 1517 1513 1508 1502 1497 1491 1485 1479 1473 1466 1461 1457 1452 1448 1445 1442
1527 1536 1531 1526 1540 1544 1539 1545 1547 1551 1562 1582 1585 1572 1562 1558 1554 1552 1549 1547 1544 1541 1538 1535 1532 1528 1524 1519 1515 1509 1503 1497 1491 1485 1479 1472 1466 1459 1453 1449 1445 1441 1438 1436
1529 1533 1543 1540 1545 1545 1544 1546 1557 1557 1556 1561 1579 1583 1555 1554 1552 1551 1549 1546 1544 1541 1538 1534 1530 1526 1521 1517 1511 1505 1499 1492 1486 1479 1472 1466 1459 1453 1449 1445 1441 1438 1434 1431
1533 1534 1551 1548 1546 1548 1554 1552 1553 1561 1564 1564 1587 1580 1554 1553 1552 1550 1548 1546 1544 1541 1537 1533 1529 1524 1519 1514 1508 1502 1495 1488 1482 1475 1468 1461 1454 1450 1445 1441 1437 1433 1429 1425
1533 1537 1544 1554 1559 1559 1560 1552 1550 1554 1577 1573 1582 1567 1558 1554 1552 1551 1549 1547 1544 1541 1537 1533 1528 1523 1517 1512 1505 1499 1491 1485 1478 1469 1463 1458 1452 1447 1442 1437 1433 1429 1425 1421
1534 1551 1548 1556 1560 1562 1565 1560 1556 1558 1557 1569 1564 1562 1556 1553 1553 1552 1550 1547 1544 1541 1536 1532 1527 1521 1516 1509 1503 1496 1489 1482 1473 1467 1462 1456 1451 1445 1441 1436 1431 1426 1422 1417
1533 1550 1549 1562 1562 1564 1570 1569 1565 1562 1561 1556 1558 1560 1554 1553 1552 1552 1551 1549 1545 1541 1537 1531 1526 1521 1515 1508 1502 1494 1488 1480 1470 1465 1460 1455 1449 1444 1439 1434 1429 1425 1420 1415
1538 1545 1553 1564 1559 1559 1571 1582 1577 1574 1572 1569 1569 1563 1558 1555 1554 1554 1552 1549 1546 1541 1536 1531 1525 1520 1515 1508 1502 1494 1488 1479 1469 1464 1460 1454 1448 1443 1438 1434 1430 1425 1420 1415
1544 1547 1550 1561 1563 1577 1584 1582 1581 1578 1576 1573 1568 1565 1560 1559 1556 1555 1552 1549 1545 1541 1536 1531 1526 1521 1515 1509 1501 1495 1487 1476 1469 1464 1459 1454 1448 1443 1440 1436 1431 1426 1422 1417
1546 1555 1558 1559 1569 1582 1580 1580 1581 1579 1584 1577 1574 1568 1563 1559 1556 1553 1552 1549 1546 1542 1537 1532 1527 1522 1516 1509 1502 1495 1485 1476 1470 1465 1460 1454 1449 1445 1441 1437 1433 1429 1424 1420
1554 1554 1560 1559 1564 1575 1583 1582 1582 1582 1584 1580 1575 1569 1566 1561 1562 1556 1552 1550 1546 1542 1538 1533 1528 1523 1516 1510 1502 1494 1485 1477 1472 1467 1462 1457 1451 1447 1443 1439 1435 1431 1428 1423
1564 1563 1566 1564 1574 1582 1583 1582 1583 1584 1592 1579 1574 1569 1567 1564 1561 1557 1554 1551 1548 1543 1539 1535 1529 1523 1517 1511 1503 1494 1486 1479 1475 1470 1465 1460 1454 1450 1447 1442 1438 1434 1431 1428
1575 1573 1576 1573 1574 1584 1583 1582 1583 1585 1581 1578 1573 1569 1566 1564 1561 1557 1554 1551 1548 1544 1540 1535 1530 1525 1519 1512 1504 1496 1487 1482 1478 1473 1469 1463 1458 1454 1450 1446 1442 1438 1435 1432
1578 1582 1583 1581 1585 1585 1584 1583 1583 1582 1579 1575 1571 1569 1567 1564 1561 1558 1555 1552 1549 1545 1541 1537 1532 1527 1521 1514 1507 1499 1491 1485 1481 1477 1473 1468 1463 1458 1454 1450 1447 1443 1440 1437
1585 1585 1584 1584 1587 1585 1584 1583 1582 1579 1576 1573 1569 1568 1566 1564 1561 1558 1555 1553 1550 1547 1543 1539 1534 1529 1523 1517 1510 1504 1496 1489 1484 1480 1477 1472 1467 1463 1459 1454 1452 1448 1445 1442
1591 1588 1588 1586 1586 1585 1583 1582 1580 1577 1573 1570 1569 1567 1565 1564 1562 1559 1557 1554 1552 1548 1545 1541 1536 1531 1526 1521 1515 1510 1501 1494 1488 1484 1480 1477 1473 1469 1465 1462 1457 1454 1452 1450
1593 1593 1593 1591 1590 1589 1582 1579 1576 1573 1570 1568 1568 1568 1566 1565 1563 1561 1559 1556 1553 1550 1547 1543 1539 1534 1529 1524 1519 1514 1507 1499 1492 1487 1483 1480 1477 1475 1472 1469 1466 1463 1460 1459